パンスターズ彗星

C/2015 D3 ( PanSTARRS )

English version
Home page
Updated on February 13, 2018

---------------------------------------------------------------------

・ プロフィール

発見日 2015年2月19日
発見光度 20.4等
発見者 Pan-STARRS 1 telescope (Haleakala)

・ 写真集

・ 軌道要素

Epoch 2016 May 12.0 TT = JDT 2457520.5
T 2016 Apr. 30.79024 TT                                 MPCW
q   8.1487435            (2000.0)            P               Q
z  -0.0003036      Peri.    2.84997     -0.90712709     +0.28894160
 +/-0.0000011      Node   156.98046     +0.36899876     +0.19640691
e   1.0024736      Incl.  128.50934     +0.20238665     +0.93698297
From 244 observations 2015 Feb. 17-2018 Jan. 17, mean residual 0".5.

・ 光度変化

        m1 = 5.5 + 5 logΔ + 10.0 log r

---------------------------------------------------------------------

軌道要素はM.P.E.C. 2018-B155に掲載されたものです。
光度グラフはComet for Windowsで作成したものです。

---------------------------------------------------------------------

Copyright(C) Seiichi Yoshida (comet@aerith.net). All rights reserved.